Location: Bidwell Hollow
(37.7387°N, 90.1707°W)
Time: 18:19:39
(UTC+00:00)

Altair - Pass Details

Date: 16 May 2026
Orbit: 1501 x 1682 km, 47.2° (Epoch: 9 June)

Event Time Altitude Azimuth Distance (km) Brightness Sun altitude
Exits shadow 08:20:35 17° 166° (SSE) 3,309 8.9 -23.9°
Maximum altitude 08:25:44 26° 126° (SE) 2,811 8.8 -23.2°
Drops below altitude 10° 08:33:23 10° 76° (ENE) 3,910 10.4 -22.3°
Sets 08:37:15 0° 64° (ENE) 4,918 11.3 -21.8°
